Regional Weather Roundup
Issued by NWS

Home | Current Version | Previous Version | Graphics & Text | Print | Product List | Glossary On
Versions: 1 2 3 4 5 6 7 8 9 10 11 12 13 14 15 16 17 18 19 20 21 22 23 24 25 26 27 28 29 30 31 32 33 34 35 36 37 38 39 40 41 42 43 44 45 46 47 48 49 50
000
ASUS43 KMKX 011221
RWRWI

WISCONSIN REGIONAL WEATHER ROUNDUP
NATIONAL WEATHER SERVICE MILWAUKEE/SULLIVAN WI
700 AM CDT TUE SEP 01 2015

NOTE: "FAIR" INDICATES FEW OR NO CLOUDS BELOW 12,000 FEET WITH NO
SIGNIFICANT WEATHER AND/OR OBSTRUCTIONS TO VISIBILITY.

WIZ001-002-006>008-014>016-023>028-011300-
NORTHWEST WISCONSIN

CITY           SKY/WX    TMP DP  RH WIND       PRES   REMARKS
SUPERIOR ARPT  MOCLDY    70  69  96 SW3       29.89R FOG
6HR MIN TEMP:  70; 6HR MAX TEMP:  73;

ASHLAND        CLOUDY    72  71  97 SW5       29.91S FOG
6HR MIN TEMP:  70; 6HR MAX TEMP:  72;

HAYWARD        CLOUDY    70  68  93 S7        29.94R FOG
6HR MIN TEMP:  68; 6HR MAX TEMP:  73;

SIREN          MOCLDY    70  68  95 CALM      29.93R FOG
6HR MIN TEMP:  69; 6HR MAX TEMP:  72;

CUMBERLAND     FOG       66  64  94 S3        29.95S VSB<1/4
RICE LAKE      FOG       69  68  96 SE6       29.96R VSB 1/4
6HR MIN TEMP:  66; 6HR MAX TEMP:  69;

CHETEK         FOG      N/A N/A N/A CALM      29.95S VSB 1/4
LADYSMITH      FOG       70  69  96 S7        29.98S VSB<1/4
6HR MIN TEMP:  68; 6HR MAX TEMP:  71;

EAU CLAIRE     PTCLDY    68  67  96 S3        29.95R FOG
6HR MIN TEMP:  67; 6HR MAX TEMP:  73;

MENOMONIE      FOG       67  67  99 CALM      29.95R VSB<1/4
6HR MIN TEMP:  66; 6HR MAX TEMP:  69;

NEW RICHMOND   PTCLDY    68  67  98 S5        29.94S FOG
6HR MIN TEMP:  67; 6HR MAX TEMP:  71;

OSCEOLA        PTCLDY    69  69 100 S6        29.95S FOG
6HR MIN TEMP:  68; 6HR MAX TEMP:  71;

$$

WIZ003>005-009-010-017-018-011300-
NORTH CENTRAL WISCONSIN

CITY           SKY/WX    TMP DP  RH WIND       PRES   REMARKS
MANITOWISH WTR CLOUDY    69  69 100 SW5       29.98S FOG
6HR MIN TEMP:  65; 6HR MAX TEMP:  70;

ARBOR VITAE    MOCLDY    71  70  96 S5        29.99S FOG
6HR MIN TEMP:  67; 6HR MAX TEMP:  72;

WOODRUFF       MOCLDY    71  70  96 S5        29.99S FOG
6HR MIN TEMP:  67; 6HR MAX TEMP:  72;

RHINELANDER    CLOUDY    69  67  93 SW6       30.01S FOG
6HR MIN TEMP:  68; 6HR MAX TEMP:  69;

EAGLE RIVER    CLOUDY    69  69 100 CALM      30.00S FOG
6HR MIN TEMP:  66; 6HR MAX TEMP:  69;

LAND O LAKES   CLOUDY    69  68  99 CALM      30.01S FOG
6HR MIN TEMP:  66; 6HR MAX TEMP:  69;

PHILLIPS       CLOUDY    69  69 100 S6        29.97S FOG
6HR MIN TEMP:  66; 6HR MAX TEMP:  69;

TOMAHAWK       CLOUDY    67  66  97 CALM      30.01R FOG
MEDFORD        FOG       63  63 100 CALM      30.00S VSB<1/4
6HR MIN TEMP:  63; 6HR MAX TEMP:  69;

MERRILL        MOCLDY    64  64 100 CALM      30.00S FOG
6HR MIN TEMP:  60; 6HR MAX TEMP:  63;

$$

WIZ029-030-035-036-043>047-011300-
CENTRAL WISCONSIN

CITY           SKY/WX    TMP DP  RH WIND       PRES   REMARKS
WAUSAU         CLEAR     65  64  97 E3        29.99R FOG
6HR MIN TEMP:  65; 6HR MAX TEMP:  69;

MOSINEE        NOT AVBL
MARSHFIELD     FOG       66  63  90 CALM      29.99S VSB<1/4
6HR MIN TEMP:  65; 6HR MAX TEMP:  67;

STEVENS POINT  CLEAR     65  65  98 CALM      30.01R FOG
6HR MIN TEMP:  62; 6HR MAX TEMP:  66;

WAUPACA        CLEAR     65  64  97 CALM      30.00S FOG
6HR MIN TEMP:  64; 6HR MAX TEMP:  66;

WAUTOMA        FOG       62  62 100 CALM      30.01S VSB<1/4
6HR MIN TEMP:  61; 6HR MAX TEMP:  64; 6HR PCP: TRACE;

WISC RAPIDS    CLEAR     67  64  90 S3        30.01R FOG
6HR MIN TEMP:  65; 6HR MAX TEMP:  69;

CAMP DOUGLAS   PTCLDY    70  70 100 S3        29.99R
$$

WIZ011>013-019>022-031-037>040-048>050-011300-
NORTHEAST WISCONSIN

CITY           SKY/WX    TMP DP  RH WIND       PRES   REMARKS
ANTIGO         PTCLDY    67  66  99 S5        30.02S FOG
SHAWANO        MOCLDY    67  66  95 CALM      29.99F FOG
6HR MIN TEMP:  66; 6HR MAX TEMP:  69;

OCONTO         PTCLDY    63  63 100 CALM      29.99S
6HR MIN TEMP:  60; 6HR MAX TEMP:  66;

STURGEON BAY   CLEAR     68  64  88 S7        30.03S
6HR MIN TEMP:  64; 6HR MAX TEMP:  66;

GREEN BAY      CLEAR     65  64  97 S3        30.00S
MANITOWOC      CLEAR     55  54  94 MISG      30.03R FOG
6HR MIN TEMP:  54; 6HR MAX TEMP:  57;

APPLETON       MOCLDY    64  64 100 SW6       29.99S FOG
CLINTONVILLE   LGT RAIN  63  63 100 CALM      30.00R
OSHKOSH        PTCLDY    69  67  93 S9        30.00S FOG
6HR MIN TEMP:  66; 6HR MAX TEMP:  69;

$$

WIZ032>034-041-042-053>061-011300-
SOUTHWEST WISCONSIN

CITY           SKY/WX    TMP DP  RH WIND       PRES   REMARKS
LA CROSSE      CLEAR     69  68  96 SE6       29.96S FOG
6HR MIN TEMP:  69; 6HR MAX TEMP:  73;

SPARTA         CLEAR     63  62  96 CALM      29.99R FOG
VIROQUA          N/A     69  69 100 SE5       30.01S VSB 1
6HR MIN TEMP:  68; 6HR MAX TEMP:  71;

BOSCOBEL       FOG       65  64  97 CALM      30.00R VSB<1/4
6HR MIN TEMP:  64; 6HR MAX TEMP:  71;

PRAIRIE DU CHI PTCLDY    68  67  94 CALM      29.99R FOG
6HR MIN TEMP:  67; 6HR MAX TEMP:  73;

PLATTEVILLE      N/A     68  68 100 S5        30.02S VSB 1
6HR MIN TEMP:  68; 6HR MAX TEMP:  72;

$$

WIZ056-057-062-063-064-067-068-011300-
SOUTH CENTRAL WISCONSIN

CITY           SKY/WX    TMP DP  RH WIND       PRES   REMARKS
REEDSBURG      CLEAR     71  69  96 S5        30.00S FOG
6HR MIN TEMP:  68; 6HR MAX TEMP:  73;

BARABOO/DELLS  CLEAR     69  67  92 S3        30.01R FOG
6HR MIN TEMP:  69; 6HR MAX TEMP:  71;

LONE ROCK      PTCLDY    66  64  93 CALM      30.01S FOG
6HR MIN TEMP:  66; 6HR MAX TEMP:  71;

MINERAL POINT  FOG       70  68  94 CALM      30.03S VSB<1/4
MADISON        PTCLDY    70  68  93 S7        30.01S FOG
6HR MIN TEMP:  69; 6HR MAX TEMP:  72;

MIDDLETON      PTCLDY    72  71  95 CALM      30.03R
6HR MIN TEMP:  68; 6HR MAX TEMP:  73;

WATERTOWN      MOCLDY    68  68 100 CALM      30.02S FOG
6HR MIN TEMP:  65; 6HR MAX TEMP:  68;

MONROE         FOG       68  68 100 S6        30.04S VSB 1/4
JANESVILLE     CLEAR     72  70  94 S3        30.02S FOG
$$

WIZ051-052-058>065-066-070>072-011300-
SOUTHEAST WISCONSIN

CITY           SKY/WX    TMP DP  RH WIND       PRES   REMARKS
MILWAUKEE      PTCLDY    70  67  90 CALM      30.03R FOG
6HR MIN TEMP:  66; 6HR MAX TEMP:  70;

WAUKESHA       PTCLDY    66  64  94 CALM      30.05R FOG
MILWAUKEE/TIMM PTCLDY    64  61  88 CALM      30.04R FOG
RACINE         PTCLDY    71  68  90 SW3       30.05R FOG
6HR MIN TEMP:  67; 6HR MAX TEMP:  70;

BURLINGTON       N/A     60  60 100 CALM      30.04R FOG
6HR MIN TEMP:  58; 6HR MAX TEMP:  62;

KENOSHA        CLEAR     70  68  93 SW5       30.04S FOG
6HR MIN TEMP:  64; 6HR MAX TEMP:  70;

FOND DU LAC    CLEAR     69  67  93 S6        30.01S FOG
6HR MIN TEMP:  66; 6HR MAX TEMP:  69;

SHEBOYGAN      FOG       63  63 100 S5        30.03R VSB 1
6HR MIN TEMP:  60; 6HR MAX TEMP:  64;

WEST BEND      PTCLDY    63  61  94 CALM      30.03S FOG
JUNEAU         PTCLDY    67  66  98 CALM      30.04S FOG
6HR MIN TEMP:  65; 6HR MAX TEMP:  67; 6HR PCP:  0.03;

$$

LSZ147-162-011300-
LAKE SUPERIOR

STATION/POSITION TIME  TEMP    WIND        PRES    WAVE
                       AIR SEA DIR/SP/G            HT/PER
                 (UTC) (F)     (DEG/KT/KT) (MB)    (FT/S)
W MID LAKE BUOY  1150   60 54  210/  6/  8 1011.8R   1/ 3
DEVILS ISLAND    1200   71     200/  5/  6 1011.8R
PORT WING        1100   73     200/  5/  8 1012.2R
SAXON HARBOR     1100   74     190/  3/  7 1012.2
$$

LMZ867-665-643>646-011300-
LAKE MICHIGAN

STATION/POSITION TIME  TEMP    WIND        PRES    WAVE
                       AIR SEA DIR/SP/G            HT/PER
                 (UTC) (F)     (DEG/KT/KT) (MB)    (FT/S)
CHAMBERS ISLAND  1100   67     180/  3/  6 1015.6R
S GREEN BAY BUOY 1200   67 63  180/  6/  8 1017.1R
N MID LAKE BUOY  1150   64 65  200/ 12/ 14 1015.8R   2/ 4
NORTHPORT PIER   1100   64     170/  3/  6 1015.6R
KEWAUNEE LAKESHO 1200   49     160/  4/  5 1015.5R


USA.gov is the U.S. government's official web portal to all federal, state and local government web resources and services.